[[{"header":{"parameterUnit":"m.s-1","parameterCategory":1,"la1":30.2991,"la2":30.254,"lo1":-89.0895,"lo2":-89.0444,"dy":0.0017,"dx":0.0017,"nx":28,"ny":28,"refTime":"2024-12-07T03:00:00:Z","depth":0,"parameterNumber":2,"parameterNumberName":"U-component_of_WINDS"},"data":[0,0,0,0,0,0,0,0,0,0,0,0,0,0,0,0,0,0,0,0,0,0,0,0,0,0,0,0,0,0,0,0,0,0,0,0,0,0,0,0,0,0,0,0,0,0,0,0,0,0,0,0,0,0,0,0,0,0,-4.0297,-4.0298,0,-4.032,-4.032,-4.0321,-4.0154,-4.0149,-4.0145,-4.014,-4.0165,-4.017,-4.0175,0,0,0,0,0,0,0,0,0,0,0,0,0,-4.0111,-4.0115,-4.0297,-4.0298,-4.0298,-4.032,-4.032,-4.0321,-4.0155,-4.0149,-4.0143,-4.0138,-4.0163,-4.0169,-4.0175,0,0,0,0,0,0,0,0,0,0,0,0,0,-4.0169,-4.0116,-4.0297,-4.0218,-4.0211,-4.032,-4.032,-4.0321,-4.0156,-4.0149,-4.0142,-4.0135,-4.0161,-4.0169,-4.0176,-4.0363,0,0,-4.0199,-4.0202,0,0,0,0,0,0,0,0,-4.0165,-4.0176,-4.0229,-4.0223,-4.0216,-4.0227,-4.0263,-4.0335,-4.0158,-4.0177,-4.014,-4.0132,-4.0191,-4.0196,-4.0216,-4.0364,-4.0365,-4.02,-4.0204,-4.0208,-4.021,0,0,0,0,0,0,0,-4.0162,-4.0174,-4.0306,-4.023,-4.0222,-4.0181,-4.0181,-4.0276,-4.0223,-4.0175,-4.0163,-4.0168,-4.0186,-4.0209,-4.0215,-4.0366,-4.02,-4.0206,-4.0211,-4.0214,-4.0667,-4.0675,0,0,0,0,0,0,-4.0168,-4.0171,-4.0305,-4.0307,-4.0173,-4.019,-4.0191,-4.0231,-4.0222,-4.0214,-4.0174,-4.016,-4.0199,-4.0206,-4.0215,-4.0433,-4.0208,-4.0215,-4.0219,-4.066,-4.0669,-4.0677,0,0,0,0,0,0,-4.0165,-4.0182,-4.0305,-4.0236,-4.0248,-4.0201,-4.0247,-4.0235,-4.0257,-4.0221,-4.0211,-4.0206,-4.0194,-4.0205,-4.0327,-4.0432,-4.0218,-4.0225,-4.0651,-4.0663,-4.0673,-4.0872,0,0,0,0,0,0,-4.016,-4.0182,-4.0252,-4.0239,-4.0253,-4.0417,-4.0253,-4.024,-4.027,-4.0252,-4.0249,-4.0242,-4.0189,-4.0317,-4.0335,-4.0438,-4.0231,-4.0642,-4.0656,-4.067,-4.0856,-4.0888,-4.0916,0,0,0,0,0,-4.0154,-4.0308,-4.0257,-4.0274,-4.034,-4.0423,-4.0431,-4.0368,-4.0279,-4.035,-4.0326,-4.0242,-4.0417,-4.0331,-4.035,-4.0457,-4.0635,-4.0652,-4.0669,-4.0842,-4.0882,-4.0916,0,0,0,0,0,0,-4.0336,-4.0305,-4.0248,-4.0401,-4.0416,-4.0395,-4.0482,-4.0412,-4.0453,-4.0435,-4.0354,-4.0355,-4.0491,-4.0486,-4.039,-4.0637,-4.051,-4.0532,-4.0636,-4.0674,-4.0703,-4.0703,-4.0237,0,0,0,0,0,-4.0393,-4.0463,-4.0432,-4.0571,-4.0581,-4.0531,-4.0565,-4.0514,-4.0527,-4.0532,-4.0518,-4.0533,-4.0591,-4.0632,-4.0684,-4.0853,-4.085,-4.0936,-4.0967,-4.0992,-4.1012,-4.1101,-4.1139,-4.0733,-4.0733,-4.0732,0,0,-4.0514,-4.0505,-4.0555,-4.0607,-4.0613,-4.0687,-4.0537,-4.0623,-4.0677,-4.0545,-4.066,-4.065,-4.0662,-4.0809,-4.0873,-4.0809,-4.1123,-4.1013,-4.1034,-4.104,-4.1122,-4.1161,-4.1195,-4.0744,-4.0742,-4.0741,0,0,-4.0772,-4.0772,-4.0887,-4.0896,-4.0906,-4.0871,-4.0899,-4.0888,-4.0876,-4.099,-4.0892,-4.0956,-4.1058,-4.107,-4.109,-4.1351,-4.1275,-4.137,-4.153,-4.1617,-4.1649,-4.1677,-4.1771,-4.1806,-4.139,-4.139,-4.1391,0,-4.092,-4.1028,-4.0956,-4.1048,-4.1074,-4.0956,-4.1073,-4.1084,-4.1111,-4.1132,-4.1059,-4.1185,-4.1184,-4.1332,-4.1396,-4.1416,-4.1445,-4.1371,-4.1651,-4.1678,-4.1703,-4.1791,-4.1827,-4.1402,-4.14,-4.1399,-4.1398,0,-4.1211,-4.1287,-4.1379,-4.1408,-4.1443,-4.1547,-4.1491,-4.1536,-4.1482,-4.1455,-4.1572,-4.1567,-4.1616,-4.1646,-4.1595,-4.1788,-4.1747,-4.1664,-4.1536,-4.1755,-4.1836,-4.187,-4.1418,-4.1414,-4.1411,-4.1408,0,0,-4.1586,-4.1571,-4.1606,-4.1617,-4.1619,-4.1677,-4.1775,-4.1821,-4.1862,-4.1884,-4.1964,-4.2053,-4.1975,-4.1998,-4.1946,-4.2023,-4.2231,-4.193,-4.1929,-4.1987,-4.2443,-4.2507,-4.2547,-4.2179,-4.2185,-4.219,-4.2442,0,-4.1838,-4.2004,-4.1941,-4.2113,-4.2183,-4.2071,-4.2157,-4.2167,-4.2144,-4.22,-4.2173,-4.2238,-4.213,-4.2143,-4.2214,-4.2191,-4.2322,-4.2171,-4.2254,-4.2258,-4.2256,-4.259,-4.2658,-4.2896,-4.2474,-4.2479,-4.2483,0,-4.2155,-4.2189,-4.2368,-4.2356,-4.2383,-4.2461,-4.2498,-4.2553,-4.2562,-4.2539,-4.2564,-4.2495,-4.259,-4.2461,-4.2591,-4.2491,-4.252,-4.2514,-4.2521,-4.2528,-4.2385,-4.2606,-4.297,-4.3007,-4.2532,-4.2528,-4.2525,0,-4.2411,-4.2502,-4.262,-4.2633,-4.2622,-4.268,-4.2678,-4.268,-4.2712,-4.2744,-4.2764,-4.2808,-4.2832,-4.2867,-4.2812,-4.2723,-4.2951,-4.2817,-4.2935,-4.2937,-4.299,-4.2988,-4.3365,-4.3007,-4.3007,-4.3006,-4.3005,0,-4.27,-4.2814,-4.2735,-4.2808,-4.2932,-4.2858,-4.2983,-4.2968,-4.2971,-4.3039,-4.2945,-4.3012,-4.2934,-4.2993,-4.295,-4.3065,-4.3076,-4.3061,-4.3049,-4.307,-4.3073,-4.309,-4.3072,-4.3016,-4.3013,-4.3012,-4.301,0,-4.3009,-4.296,-4.3082,-4.3061,-4.3059,-4.3151,-4.3134,-4.32,-4.317,-4.3257,-4.3274,-4.3226,-4.3291,-4.3238,-4.3301,-4.3272,-4.3424,-4.3387,-4.3422,-4.3412,-4.3534,-4.3524,-4.3936,-4.3987,-4.3597,-4.36,-4.3604,0,-4.3197,-4.3282,-4.327,-4.3309,-4.3313,-4.3377,-4.3408,-4.3338,-4.3375,-4.3391,-4.3456,-4.3512,-4.3553,-4.3661,-4.3632,-4.368,-4.3644,-4.3785,-4.3651,-4.367,-4.3647,-4.3644,-4.3652,-4.3814,-4.3818,-4.3822,-4.3825,0,-4.3537,-4.3508,-4.3557,-4.3599,-4.3639,-4.3668,-4.369,-4.3727,-4.3655,-4.3701,-4.3765,-4.3797,-4.3861,-4.3918,-4.3955,-4.3953,-4.3878,-4.3867,-4.3897,-4.3921,-4.3938,-4.3931,-4.3497,-4.3859,-4.3855,-4.3853,-4.3851,-4.385,-4.3791,-4.3861,-4.3864,-4.3922,-4.393,-4.3953,-4.4014,-4.3991,-4.4043,-4.4089,-4.4044,-4.4122,-4.4127,-4.4169,-4.4176,-4.4236,-4.4177,-4.4221,-4.4232,-4.4244,-4.4262,-4.3927,-4.4242,-4.4241,-4.424,-4.424,-4.4239,0,-4.4127,-4.4123,-4.4176,-4.4209,-4.4255,-4.4179,-4.4198,-4.4242,-4.4311,-4.4322,-4.4364,-4.4438,-4.4492,-4.4467,-4.4515,-4.4567,-4.4534,-4.4582,-4.4578,-4.4579,-4.4312,-4.4281,-4.4608,-4.4608,-4.4608,-4.4608,-4.4608,-4.4608,-4.4307,-4.4421,-4.4393,-4.4511,-4.4505,-4.458,-4.4598,-4.4618,-4.4626,-4.4713,-4.4757,-4.474,-4.4737,-4.4783,-4.4829,-4.482,-4.4843,-4.4904,-4.4883,-4.4634,-4.4598,-4.4563,-4.4534,-4.4909,-4.491,-4.5145,-4.5148,-4.5149]},{"header":{"parameterUnit":"m.s-1","parameterCategory":1,"la1":30.2991,"la2":30.254,"lo1":-89.0895,"lo2":-89.0444,"dy":0.0017,"dx":0.0017,"nx":28,"ny":28,"refTime":"2024-12-07T03:00:00:Z","depth":0,"parameterNumber":3,"parameterNumberName":"V-component_of_WINDS"},"data":[0,0,0,0,0,0,0,0,0,0,0,0,0,0,0,0,0,0,0,0,0,0,0,0,0,0,0,0,0,0,0,0,0,0,0,0,0,0,0,0,0,0,0,0,0,0,0,0,0,0,0,0,0,0,0,0,0,0,-4.0466,-4.0466,0,-4.0505,-4.0506,-4.0506,-4.0457,-4.0455,-4.0453,-4.0452,-4.049,-4.0492,-4.0495,0,0,0,0,0,0,0,0,0,0,0,0,0,-4.0343,-4.0346,-4.0466,-4.0466,-4.0467,-4.0505,-4.0506,-4.0506,-4.0457,-4.0455,-4.0453,-4.0451,-4.0489,-4.0492,-4.0495,0,0,0,0,0,0,0,0,0,0,0,0,0,-4.0391,-4.0347,-4.0466,-4.0447,-4.0446,-4.0505,-4.0506,-4.0507,-4.0458,-4.0455,-4.0452,-4.045,-4.0488,-4.0492,-4.0496,-4.0575,0,0,-4.0508,-4.051,0,0,0,0,0,0,0,0,-4.0388,-4.0396,-4.0449,-4.0448,-4.0447,-4.0474,-4.0477,-4.0529,-4.0459,-4.0453,-4.0452,-4.0449,-4.0486,-4.049,-4.0504,-4.0577,-4.0578,-4.0509,-4.0511,-4.0513,-4.0514,0,0,0,0,0,0,0,-4.0385,-4.0394,-4.0481,-4.045,-4.0449,-4.0435,-4.0439,-4.0486,-4.0484,-4.0453,-4.045,-4.0455,-4.0485,-4.05,-4.0504,-4.0579,-4.0508,-4.0512,-4.0515,-4.0516,-4.0716,-4.0718,0,0,0,0,0,0,-4.0385,-4.0391,-4.048,-4.0482,-4.0411,-4.044,-4.0444,-4.0468,-4.0484,-4.0484,-4.0458,-4.0453,-4.0494,-4.05,-4.0505,-4.0597,-4.0513,-4.0516,-4.0519,-4.0713,-4.0716,-4.0719,0,0,0,0,0,0,-4.0382,-4.0393,-4.0478,-4.0436,-4.0446,-4.0445,-4.0472,-4.047,-4.0485,-4.0487,-4.0486,-4.0473,-4.0492,-4.05,-4.0558,-4.0598,-4.0518,-4.0522,-4.0709,-4.0714,-4.0718,-4.0782,0,0,0,0,0,0,-4.0379,-4.0392,-4.0424,-4.0437,-4.0448,-4.0531,-4.0474,-4.0473,-4.0492,-4.0486,-4.0501,-4.0501,-4.0491,-4.0552,-4.0562,-4.0602,-4.0525,-4.0706,-4.0711,-4.0716,-4.0776,-4.0788,-4.0798,0,0,0,0,0,-4.0375,-4.044,-4.0425,-4.0436,-4.0487,-4.0534,-4.054,-4.0527,-4.0496,-4.0526,-4.0527,-4.0501,-4.0592,-4.0558,-4.0569,-4.0611,-4.0703,-4.071,-4.0716,-4.0772,-4.0786,-4.0798,0,0,0,0,0,0,-4.0431,-4.0442,-4.0425,-4.0497,-4.0515,-4.0525,-4.0563,-4.0543,-4.057,-4.0563,-4.0546,-4.055,-4.0611,-4.0617,-4.0579,-4.0687,-4.0642,-4.0651,-4.0681,-4.0694,-4.0705,-4.0702,-4.0528,0,0,0,0,0,-4.0452,-4.049,-4.0497,-4.0559,-4.0569,-4.0565,-4.0585,-4.0573,-4.0591,-4.0598,-4.0603,-4.062,-4.0652,-4.0674,-4.0704,-4.0777,-4.0779,-4.0811,-4.0822,-4.0831,-4.0839,-4.0876,-4.089,-4.0741,-4.0741,-4.0741,0,0,-4.0495,-4.0506,-4.0531,-4.0571,-4.0583,-4.0621,-4.0572,-4.0614,-4.0642,-4.0604,-4.0658,-4.0663,-4.068,-4.0746,-4.0775,-4.0753,-4.088,-4.0839,-4.0847,-4.0849,-4.0884,-4.0898,-4.091,-4.0745,-4.0744,-4.0744,0,0,-4.0593,-4.0606,-4.0658,-4.0672,-4.0691,-4.0688,-4.07,-4.0713,-4.0715,-4.077,-4.0741,-4.0773,-4.083,-4.0843,-4.0857,-4.0958,-4.0934,-4.0968,-4.1024,-4.1061,-4.1072,-4.1082,-4.1117,-4.1129,-4.0976,-4.0976,-4.0976,0,-4.0644,-4.0702,-4.0688,-4.0732,-4.075,-4.0717,-4.0769,-4.0783,-4.0811,-4.0823,-4.0798,-4.0866,-4.0876,-4.0943,-4.0967,-4.0981,-4.0993,-4.0966,-4.1072,-4.1082,-4.1091,-4.1124,-4.1137,-4.098,-4.0979,-4.0979,-4.0978,0,-4.0762,-4.0802,-4.0842,-4.087,-4.0892,-4.094,-4.0932,-4.0956,-4.0942,-4.0941,-4.0996,-4.1006,-4.1037,-4.1052,-4.1039,-4.1117,-4.1102,-4.1075,-4.1029,-4.111,-4.1139,-4.1152,-4.0985,-4.0984,-4.0983,-4.0982,0,0,-4.0897,-4.0916,-4.093,-4.0941,-4.096,-4.099,-4.1035,-4.1066,-4.1085,-4.1105,-4.1142,-4.119,-4.1164,-4.118,-4.1168,-4.1201,-4.1277,-4.1169,-4.1169,-4.1187,-4.136,-4.1379,-4.1394,-4.1262,-4.1264,-4.1266,-4.1358,0,-4.0993,-4.1073,-4.1061,-4.1137,-4.1173,-4.1142,-4.1181,-4.1196,-4.1196,-4.1224,-4.1224,-4.1257,-4.1222,-4.1231,-4.1262,-4.1262,-4.1312,-4.1255,-4.1294,-4.1295,-4.1289,-4.141,-4.1431,-4.1517,-4.137,-4.1372,-4.1374,0,-4.1117,-4.1141,-4.1221,-4.1231,-4.1246,-4.1282,-4.1307,-4.1336,-4.1351,-4.1348,-4.1366,-4.1348,-4.1391,-4.1346,-4.1405,-4.1367,-4.1382,-4.1384,-4.1387,-4.1389,-4.1338,-4.1413,-4.1545,-4.1557,-4.1392,-4.1391,-4.1389,0,-4.1204,-4.1257,-4.1311,-4.1322,-4.1336,-4.1362,-4.1369,-4.1381,-4.14,-4.1422,-4.1433,-4.146,-4.1474,-4.1495,-4.1484,-4.1452,-4.1544,-4.1498,-4.1541,-4.1541,-4.1561,-4.1559,-4.1695,-4.1574,-4.1574,-4.1573,-4.1573,0,-4.1312,-4.1362,-4.135,-4.1383,-4.1437,-4.1422,-4.1475,-4.1479,-4.149,-4.1522,-4.1497,-4.1527,-4.1512,-4.154,-4.1532,-4.1581,-4.1588,-4.1586,-4.1582,-4.1587,-4.1587,-4.1595,-4.1588,-4.1577,-4.1576,-4.1575,-4.1575,0,-4.1419,-4.1413,-4.1469,-4.1478,-4.1482,-4.1521,-4.1527,-4.1557,-4.1555,-4.1596,-4.1604,-4.16,-4.1632,-4.1624,-4.1659,-4.1653,-4.1714,-4.1704,-4.1709,-4.1706,-4.1749,-4.1744,-4.1893,-4.191,-4.178,-4.1781,-4.1782,0,-4.1487,-4.1524,-4.1537,-4.1557,-4.1566,-4.1598,-4.1616,-4.1603,-4.1622,-4.1641,-4.1669,-4.1699,-4.1722,-4.1775,-4.1774,-4.18,-4.179,-4.184,-4.1793,-4.1796,-4.1788,-4.1785,-4.1788,-4.1849,-4.185,-4.1852,-4.1853,0,-4.1608,-4.1603,-4.1631,-4.1657,-4.168,-4.17,-4.1717,-4.1735,-4.1722,-4.1746,-4.1778,-4.1796,-4.1832,-4.1861,-4.1885,-4.1891,-4.1869,-4.1867,-4.1878,-4.1882,-4.1883,-4.1881,-4.1732,-4.1864,-4.1863,-4.1862,-4.1861,-4.1861,-4.1696,-4.1727,-4.174,-4.1771,-4.1783,-4.18,-4.1828,-4.1828,-4.1856,-4.1884,-4.1874,-4.1911,-4.1923,-4.1953,-4.1962,-4.1989,-4.197,-4.1986,-4.199,-4.1994,-4.1998,-4.188,-4.1994,-4.1993,-4.1993,-4.1993,-4.1993,0,-4.1814,-4.1821,-4.185,-4.1875,-4.1899,-4.1877,-4.1895,-4.1916,-4.1949,-4.1963,-4.1986,-4.2022,-4.205,-4.2052,-4.2078,-4.21,-4.209,-4.2107,-4.2104,-4.2105,-4.2015,-4.2002,-4.2114,-4.2114,-4.2114,-4.2114,-4.2114,-4.2114,-4.1879,-4.1929,-4.1925,-4.198,-4.1986,-4.2022,-4.2034,-4.2048,-4.2059,-4.2101,-4.2124,-4.2125,-4.2133,-4.2159,-4.2184,-4.2183,-4.2193,-4.2213,-4.2208,-4.2124,-4.2112,-4.21,-4.2088,-4.2216,-4.2216,-4.2296,-4.2297,-4.2297]}]]